EW8328 Weather Reports


time (UTC)temp
F
wind
direction
speed
knots
gust
knots
rain 1hr
in
rain 24hr
in
rain mn
in
humidity
%
barometer
mb
20260831191312 58 252 6.1 10.4 0.00 0.02 0.02 78 1014.0
20260831190314 58 250 5.2 10.4 0.00 0.02 0.02 79 1013.9
20260831185812 58 253 4.3 7.8 0.00 0.02 0.02 79 1013.8
20260831185312 58 251 5.2 10.4 0.00 0.02 0.02 79 1013.7
20260831184812 58 253 4.3 10.4 0.00 0.02 0.02 78 1013.7
20260831183813 58 247 6.1 10.4 0.00 0.03 0.02 78 1013.6
20260831183312 58 250 6.1 10.4 0.00 0.06 0.02 77 1013.6
20260831182813 58 243 6.1 14.8 0.00 0.07 0.02 77 1013.5
20260831182312 58 257 5.2 10.4 0.00 0.08 0.02 77 1013.4
20260831181812 58 243 4.3 7.0 0.00 0.09 0.02 77 1013.4
20260831181313 58 259 5.2 10.4 0.00 0.10 0.02 76 1013.3
20260831180812 59 253 6.1 10.4 0.00 0.13 0.02 76 1013.2
20260831175812 59 253 5.2 13.9 0.00 0.20 0.02 76 1013.1
20260831175312 59 256 4.3 11.3 0.00 0.20 0.02 76 1013.0
20260831174813 59 247 6.1 10.4 0.00 0.20 0.02 75 1012.9
20260831173812 59 251 4.3 10.4 0.00 0.24 0.02 75 1012.8
20260831173312 59 254 7.8 15.6 0.00 0.24 0.02 75 1012.6
20260831172812 59 256 5.2 10.4 0.00 0.24 0.02 76 1012.6
20260831172313 59 253 4.3 13.0 0.00 0.24 0.02 76 1012.5
20260831171812 59 250 7.8 13.9 0.00 0.24 0.02 75 1012.5
20260831171313 60 252 5.2 11.3 0.00 0.24 0.02 76 1012.5
20260831170813 60 259 7.0 13.0 0.00 0.24 0.02 76 1012.5
20260831170313 60 254 4.3 7.8 0.00 0.24 0.02 76 1012.4
20260831165812 60 265 6.1 12.2 0.00 0.24 0.02 75 1012.4
20260831165312 60 251 6.1 13.9 0.00 0.24 0.02 76 1012.3
20260831164812 61 257 5.2 10.4 0.00 0.24 0.02 75 1012.3
20260831164312 61 250 6.1 12.2 0.00 0.24 0.02 76 1012.3
20260831163812 61 241 5.2 12.2 0.00 0.24 0.02 78 1012.2
20260831162812 61 254 5.2 8.7 0.00 0.24 0.02 79 1012.2
20260831161812 62 247 5.2 10.4 0.00 0.24 0.02 78 1012.2
20260831161312 62 244 5.2 10.4 0.00 0.24 0.02 78 1012.2
20260831160313 62 246 5.2 10.4 0.00 0.24 0.02 74 1012.1
20260831155813 63 249 4.3 12.2 0.00 0.24 0.02 73 1012.1
20260831155312 63 257 5.2 11.3 0.00 0.24 0.02 72 1011.9
20260831154813 64 249 5.2 11.3 0.00 0.24 0.02 70 1011.8
20260831154312 65 246 5.2 10.4 0.00 0.24 0.02 70 1011.7
20260831153812 64 254 4.3 12.2 0.00 0.24 0.02 71 1011.7
20260831153312 64 242 6.1 13.9 0.00 0.24 0.02 71 1011.6
20260831152812 64 241 5.2 11.3 0.00 0.24 0.02 73 1011.5
20260831152313 64 243 5.2 13.9 0.00 0.24 0.02 74 1011.4
20260831151812 64 251 5.2 13.9 0.00 0.24 0.02 73 1011.3
20260831151312 63 259 4.3 12.2 0.00 0.24 0.02 75 1011.1
20260831150812 64 255 4.3 11.3 0.00 0.24 0.02 74 1011.2
20260831150312 65 250 6.1 12.2 0.00 0.24 0.02 73 1011.1
20260831145812 64 275 7.0 15.6 0.00 0.24 0.02 72 1011.1
20260831145312 64 281 4.3 13.0 0.00 0.24 0.02 74 1010.9
20260831143812 65 239 6.1 15.6 0.00 0.24 0.02 73 1010.8
20260831143314 65 248 6.1 12.2 0.00 0.25 0.02 73 1010.7
20260831142812 65 246 6.1 12.2 0.00 0.26 0.02 74 1010.7
20260831142313 65 259 5.2 11.3 0.00 0.26 0.02 73 1010.6
20260831141812 66 268 5.2 12.2 0.00 0.26 0.02 71 1010.5
20260831141312 66 243 7.0 12.2 0.00 0.26 0.02 71 1010.4
20260831140813 66 267 7.8 13.0 0.00 0.26 0.02 70 1010.3
20260831135812 66 258 5.2 10.4 0.00 0.26 0.02 72 1010.3
20260831135311 66 272 6.1 11.3 0.00 0.26 0.02 72 1010.3
20260831134312 66 251 5.2 12.2 0.00 0.26 0.02 73 1010.1
20260831133812 66 248 6.1 15.6 0.00 0.26 0.02 71 1010.0
20260831133312 66 253 5.2 11.3 0.00 0.26 0.02 73 1009.8
20260831132813 65 274 6.1 11.3 0.00 0.26 0.02 73 1009.7
20260831131813 65 257 5.2 13.9 0.00 0.26 0.02 74 1009.6
20260831131312 65 265 4.3 8.7 0.00 0.26 0.02 74 1009.7
20260831130812 65 251 5.2 10.4 0.00 0.26 0.02 75 1009.6
20260831130311 65 263 3.5 7.0 0.00 0.26 0.02 76 1009.5
20260831125813 65 252 2.6 8.7 0.00 0.26 0.02 74 1009.5
20260831125312 66 243 5.2 10.4 0.00 0.26 0.02 75 1009.4
20260831124813 65 253 5.2 12.2 0.00 0.26 0.02 77 1009.3
20260831124312 66 248 7.0 11.3 0.00 0.26 0.02 74 1009.2
20260831123312 66 247 5.2 12.2 0.00 0.26 0.02 75 1009.0
20260831122312 66 248 5.2 10.4 0.00 0.26 0.02 75 1008.8
20260831121811 66 253 6.1 14.8 0.00 0.26 0.02 75 1008.8
20260831121313 66 249 5.2 10.4 0.00 0.26 0.02 76 1008.7
20260831120812 66 252 6.1 13.9 0.00 0.26 0.02 76 1008.6
20260831120312 65 239 4.3 11.3 0.00 0.26 0.02 78 1008.6
20260831115312 65 285 3.5 13.0 0.00 0.26 0.02 79 1008.4
20260831114812 65 247 5.2 10.4 0.00 0.26 0.02 77 1008.3
20260831114312 66 254 5.2 11.3 0.00 0.26 0.02 77 1008.2
20260831113813 67 241 5.2 10.4 0.00 0.26 0.02 77 1008.0
20260831113312 65 246 4.3 10.4 0.00 0.26 0.02 81 1007.9
20260831112812 64 241 5.2 10.4 0.00 0.26 0.02 82 1008.0
20260831112311 65 250 5.2 10.4 0.00 0.26 0.02 79 1007.9
20260831111812 66 259 4.3 10.4 0.00 0.26 0.02 77 1007.7
20260831110812 66 248 5.2 10.4 0.00 0.26 0.02 77 1007.5
20260831105812 65 251 1.7 6.1 0.00 0.26 0.02 83 1007.4
20260831105311 64 281 2.6 7.8 0.00 0.26 0.02 80 1007.4
20260831104813 64 273 1.7 5.2 0.00 0.26 0.02 83 1007.2
20260831104312 64 272 1.7 6.1 0.00 0.26 0.02 83 1007.2
20260831103812 64 240 1.7 4.3 0.00 0.26 0.02 84 1007.2
20260831103313 64 276 0.9 4.3 0.00 0.26 0.02 85 1007.1
20260831102812 63 322 0.9 2.6 0.00 0.26 0.02 85 1007.1
20260831102313 63 306 0.9 2.6 0.00 0.26 0.02 84 1007.1
20260831101812 63 283 1.7 6.1 0.00 0.26 0.02 83 1007.0
20260831101312 63 280 2.6 5.2 0.00 0.26 0.02 84 1007.0
20260831100812 63 248 2.6 7.0 0.00 0.26 0.02 84 1007.0
20260831095812 64 254 2.6 8.7 0.00 0.26 0.02 83 1006.9
20260831095312 64 298 1.7 10.4 0.00 0.26 0.02 84 1006.9
20260831094312 64 321 1.7 4.3 0.00 0.26 0.02 84 1006.7
20260831093812 64 279 0.9 2.6 0.00 0.26 0.02 85 1006.7
20260831093312 63 315 0.9 2.6 0.00 0.26 0.02 86 1006.6
20260831092812 63 262 2.6 6.1 0.00 0.26 0.02 86 1006.5
20260831092312 62 248 0.9 5.2 0.00 0.26 0.02 87 1006.4
20260831090812 61 256 1.7 6.1 0.00 0.26 0.02 88 1006.3
20260831090313 61 250 1.7 5.2 0.00 0.26 0.02 88 1006.2
20260831085813 61 269 2.6 7.0 0.00 0.26 0.02 87 1006.2
20260831085312 61 250 1.7 7.8 0.00 0.26 0.02 89 1006.1
20260831084812 61 297 0.9 4.3 0.00 0.26 0.02 90 1006.0
20260831084312 60 263 0.9 6.1 0.00 0.26 0.02 90 1006.0
20260831083812 60 263 1.7 5.2 0.00 0.26 0.02 91 1005.8
20260831083311 60 245 2.6 5.2 0.00 0.26 0.02 90 1005.8
20260831082812 60 254 3.5 6.1 0.00 0.26 0.02 91 1005.7
20260831082312 60 242 1.7 4.3 0.00 0.26 0.02 92 1005.7
20260831081311 59 252 2.6 6.1 0.00 0.26 0.02 92 1005.4
20260831080811 59 248 1.7 5.2 0.00 0.26 0.02 94 1005.3
20260831080311 59 255 2.6 6.1 0.00 0.26 0.02 93 1005.2
20260831075812 58 267 0.9 4.3 0.00 0.26 0.02 94 1005.2
20260831075312 58 254 0.9 4.3 0.00 0.26 0.02 95 1005.1
20260831074812 58 289 0.9 5.2 0.00 0.26 0.02 95 1005.1
20260831074312 58 300 0.9 5.2 0.00 0.26 0.02 95 1005.0
20260831073812 58 268 0.9 4.3 0.00 0.26 0.02 96 1004.9
20260831073312 58 258 1.7 5.2 0.00 0.26 0.02 95 1004.8
20260831072812 58 273 1.7 2.6 0.00 0.26 0.02 95 1004.8
20260831072312 58 246 0.9 2.6 0.00 0.26 0.02 96 1004.7
20260831071812 57 286 1.7 5.2 0.00 0.26 0.02 96 1004.7
20260831071311 57 256 1.7 4.3 0.00 0.26 0.02 96 1004.6
20260831070812 57 247 1.7 5.2 0.00 0.26 0.02 96 1004.5
20260831070311 57 325 1.7 2.6 0.00 0.26 0.02 96 1004.5
20260831065812 57 288 0.9 2.6 0.00 0.26 0.02 96 1004.4
20260831065311 57 300 0.9 2.6 0.00 0.26 0.02 96 1004.3
20260831064812 56 270 1.7 2.6 0.00 0.26 0.02 96 1004.3
20260831064312 56 282 0.9 2.6 0.00 0.26 0.02 96 1004.2
20260831063812 56 260 0.9 2.6 0.00 0.26 0.02 96 1004.2
20260831063313 56 302 1.7 7.0 0.00 0.26 0.02 96 1004.1
20260831062811 56 276 1.7 5.2 0.00 0.26 0.02 96 1003.9
20260831062312 56 256 2.6 6.1 0.00 0.26 0.02 96 1003.9
20260831061812 56 275 1.7 6.1 0.00 0.26 0.02 96 1003.8
20260831061312 56 258 1.7 4.3 0.00 0.26 0.02 96 1003.7
20260831060812 56 262 2.6 5.2 0.00 0.26 0.02 96 1003.6
20260831055813 56 252 0.9 2.6 0.00 0.26 0.02 96 1003.5
20260831055311 56 252 1.7 4.3 0.00 0.26 0.02 96 1003.4
20260831054812 56 246 1.7 4.3 0.00 0.26 0.02 96 1003.3
20260831054312 56 232 0.9 2.6 0.00 0.26 0.02 96 1003.2
20260831053312 56 225 0.9 2.6 0.00 0.26 0.02 96 1003.1
20260831051811 56 254 1.7 4.3 0.00 0.26 0.02 96 1002.9
20260831051311 56 257 0.9 2.6 0.00 0.26 0.02 96 1002.8
20260831050812 56 244 1.7 2.6 0.00 0.26 0.02 96 1002.6
20260831050311 56 256 1.7 4.3 0.00 0.26 0.02 96 1002.6
20260831045811 56 235 0.9 2.6 0.00 0.26 0.02 96 1002.5
20260831045312 56 236 1.7 4.3 0.00 0.26 0.02 96 1002.5
20260831044812 56 245 1.7 4.3 0.00 0.26 0.02 96 1002.4
20260831044312 56 250 0.9 5.2 0.00 0.28 0.02 96 1002.4
20260831043811 57 242 0.9 4.3 0.00 0.28 0.02 96 1002.3
20260831043311 57 270 0.9 5.2 0.00 0.32 0.02 96 1002.3
20260831042811 57 266 0.9 1.7 0.00 0.34 0.02 96 1002.2
20260831042312 57 277 0.9 2.6 0.00 0.37 0.02 96 1002.3
20260831041811 57 239 1.7 2.6 0.00 0.39 0.02 96 1002.3
20260831041311 57 249 1.7 2.6 0.00 0.39 0.02 96 1002.3
20260831040812 57 303 0.9 2.6 0.00 0.42 0.02 96 1002.3
20260831040312 57 232 0.9 2.6 0.00 0.43 0.02 96 1002.2
20260831035811 57 257 1.7 2.6 0.00 0.43 0.02 96 1002.2
20260831035311 57 249 0.9 2.6 0.00 0.43 0.02 96 1002.1
20260831034812 57 239 0.9 2.6 0.00 0.44 0.02 96 1002.1
20260831034311 57 81 0.9 2.6 0.00 0.44 0.02 96 1002.1
20260831033811 56 81 0.0 1.7 0.00 0.45 0.02 96 1002.0
20260831032812 57 81 0.9 0.9 0.00 0.46 0.02 96 1002.0
20260831032311 57 81 0.9 1.7 0.00 0.46 0.02 96 1001.9
20260831031811 57 81 0.9 1.7 0.00 0.46 0.02 96 1001.9
20260831031312 57 81 0.9 2.6 0.00 0.46 0.02 96 1001.9
20260831030811 57 81 0.0 1.7 0.00 0.46 0.02 96 1001.8
20260831030311 57 81 0.0 0.9 0.00 0.46 0.02 96 1001.7
20260831025811 57 81 0.0 0.0 0.00 0.46 0.02 96 1001.7
20260831025311 57 81 0.0 0.9 0.00 0.46 0.02 96 1001.7
20260831024812 57 81 0.9 0.9 0.00 0.46 0.02 96 1001.7
20260831024311 57 81 0.0 1.7 0.00 0.46 0.02 96 1001.6
20260831023812 57 81 0.0 0.9 0.00 0.46 0.02 96 1001.6
20260831022812 57 81 0.0 0.0 0.00 0.46 0.02 96 1001.5
20260831022311 57 81 0.0 0.0 0.00 0.46 0.02 96 1001.5
20260831021812 57 81 0.0 0.0 0.00 0.46 0.02 96 1001.5
20260831021311 57 81 0.0 0.0 0.00 0.46 0.02 96 1001.5
20260831020813 57 81 0.0 0.0 0.00 0.46 0.02 96 1001.4
20260831020311 57 81 0.0 0.0 0.00 0.46 0.02 96 1001.4
20260831015312 57 81 0.0 0.9 0.00 0.46 0.02 96 1001.3
20260831014811 57 81 0.9 0.9 0.00 0.46 0.02 96 1001.3
20260831014311 57 81 0.0 0.9 0.00 0.46 0.02 96 1001.3
20260831013811 57 81 0.0 0.0 0.00 0.46 0.02 96 1001.3
20260831013311 57 81 0.0 0.0 0.00 0.46 0.02 96 1001.2
20260831012812 57 81 0.0 0.9 0.00 0.46 0.02 96 1001.3
20260831012311 57 81 0.0 1.7 0.00 0.46 0.02 96 1001.3
20260831011811 57 81 0.0 0.9 0.00 0.46 0.02 96 1001.4
20260831011311 57 81 0.0 1.7 0.00 0.46 0.02 96 1001.4
20260831010812 57 81 0.9 1.7 0.01 0.46 0.02 96 1001.4
20260831010311 57 81 0.0 0.9 0.01 0.46 0.02 96 1001.4
20260831005811 57 81 0.0 0.0 0.01 0.46 0.02 96 1001.4
20260831005311 57 81 0.0 0.0 0.01 0.46 0.02 96 1001.4
20260831004811 57 81 0.0 1.7 0.01 0.46 0.02 96 1001.5
20260831004311 57 81 0.9 1.7 0.01 0.46 0.02 96 1001.5
20260831003811 57 81 0.0 0.0 0.01 0.46 0.02 96 1001.5
20260831003311 57 81 0.0 0.9 0.01 0.46 0.02 96 1001.5
20260831002813 57 81 0.9 0.9 0.01 0.46 0.02 96 1001.4
20260831002311 57 81 0.0 0.9 0.01 0.46 0.02 95 1001.3
20260831001811 57 81 0.0 0.0 0.01 0.46 0.02 96 1001.3
20260831001311 57 81 0.9 14.8 0.02 0.46 0.02 96 1001.3
20260831000311 57 81 0.0 0.9 0.01 0.45 0.01 95 1001.2
20260830235811 57 81 0.9 1.7 0.01 0.45 0.01 95 1001.2
20260830235311 57 81 0.0 0.9 0.01 0.45 0.01 95 1001.2
20260830234812 57 81 0.9 1.7 0.01 0.45 0.01 95 1001.3
20260830234312 57 81 0.9 1.7 0.01 0.45 0.01 95 1001.3
20260830233811 57 81 0.0 0.9 0.01 0.45 0.01 95 1001.4
20260830233311 57 81 0.9 1.7 0.01 0.45 0.01 95 1001.5
20260830232811 57 81 0.9 1.7 0.01 0.45 0.01 95 1001.5
20260830232311 57 81 0.9 1.7 0.01 0.46 0.01 95 1001.5
20260830231812 57 81 0.9 0.9 0.01 0.46 0.01 95 1001.5
20260830230900 57 81 0.9 1.7 0.00 0.45 0.00 95 1001.6
20260830230312 57 81 0.9 0.9 0.00 0.45 0.00 95 1001.7
20260830225813 57 81 0.0 0.9 0.00 0.45 0.45 95 1001.7
20260830225311 57 81 0.0 0.9 0.00 0.45 0.45 95 1001.8
20260830224811 57 81 0.9 1.7 0.00 0.45 0.45 95 1001.8
20260830224311 57 81 0.9 1.7 0.00 0.45 0.45 95 1001.9
20260830223811 57 81 0.9 2.6 0.00 0.45 0.45 95 1001.9
20260830223311 57 98 0.9 2.6 0.00 0.45 0.45 95 1002.1
20260830222811 57 98 0.9 2.6 0.00 0.45 0.45 95 1002.1
20260830222311 57 98 0.9 1.7 0.00 0.45 0.45 95 1002.1
20260830221811 57 98 0.0 0.9 0.00 0.45 0.45 95 1002.1
20260830221311 57 98 0.0 1.7 0.00 0.45 0.45 95 1002.1
20260830220812 57 98 0.9 1.7 0.00 0.45 0.45 94 1002.2
20260830220311 57 98 0.9 0.9 0.00 0.45 0.45 94 1002.2
20260830215811 57 98 0.9 1.7 0.00 0.45 0.45 94 1002.2
20260830214811 57 98 0.9 1.7 0.00 0.45 0.45 94 1002.2
20260830214311 57 98 0.0 1.7 0.00 0.45 0.45 94 1002.1
20260830213311 58 98 0.9 1.7 0.00 0.45 0.45 93 1002.0
20260830212811 58 98 0.9 1.7 0.00 0.45 0.45 93 1002.0
20260830212311 58 98 0.9 1.7 0.00 0.45 0.45 93 1002.0
20260830211811 59 98 0.0 0.9 0.00 0.45 0.45 93 1002.0
20260830211312 59 98 0.0 1.7 0.00 0.45 0.45 93 1002.1
20260830210811 59 98 0.0 2.6 0.00 0.45 0.45 93 1002.1
20260830205811 59 98 0.0 1.7 0.00 0.45 0.45 93 1002.3
20260830204811 59 118 0.9 2.6 0.00 0.45 0.45 93 1002.4
20260830203811 59 138 0.0 0.9 0.00 0.46 0.45 93 1002.4
20260830203311 59 138 0.0 2.6 0.00 0.46 0.45 93 1002.4
20260830201812 59 155 0.0 1.7 0.00 0.46 0.45 93 1002.4
20260830201311 59 155 0.9 0.9 0.00 0.46 0.45 93 1002.4
20260830200811 59 155 0.0 1.7 0.00 0.46 0.45 93 1002.4
20260830200311 59 155 0.9 1.7 0.00 0.46 0.45 93 1002.5
20260830195811 59 155 1.7 4.3 0.00 0.46 0.45 93 1002.4
20260830195312 59 93 0.9 2.6 0.00 0.46 0.45 94 1002.5
20260830194812 59 48 0.9 4.3 0.00 0.46 0.45 94 1002.4
20260830194310 59 178 0.9 2.6 0.00 0.46 0.45 94 1002.5
20260830193811 58 49 0.9 2.6 0.02 0.46 0.45 94 1002.4
20260830193310 58 250 0.9 1.7 0.04 0.46 0.45 94 1002.4
20260830192811 58 250 0.9 1.7 0.06 0.46 0.45 94 1002.4
20260830192311 58 250 0.9 1.7 0.06 0.46 0.45 93 1002.4
20260830191811 58 250 0.0 1.7 0.08 0.46 0.45 93 1002.4